COSMOS 2251 DEB, 40808

Orbit data source: Space-Track

COSMOS 2251 DEB, 40808 is space debris in LEO originally from a launch on Wed, 16 Jun 1993 UTC launched from the Plesetsk Missile And Space Complex (PKMTR). The debris from Iridium 33, an American commercial communications satellite, has been tracked extensively since its accidental collision with the defunct Russian satellite Cosmos 2251 in 2009. This event, occurring at high speed in low Earth orbit (LEO), generated thousands of pieces of space debris, significantly increasing the risk of further collisions. The Iridium 33 debris cloud has impacted space traffic management and orbital debris mitigation strategies, making it a subject of ongoing study in space situational awareness.

Loading next visibility...
Identifier
40808, 1993-036BWM
Orbit
LEO
Country
Flag of CISCIS
Related business
Manufacturer
Unknown
Mission
Spacecraft
Bus & Motor
Unknown
Mass
Unknown
Launch date (UTC)
1993-06-16 (33 years ago)
Launch vehicle
Unknown
Launch site
Plesetsk Missile And Space Complex (PKMTR)
Object type
Payload
Rocket body
Debris
Shape & HBR
Unknown shape, 0.1 m
Radar Cross Section
Small (<0.1 m²)

Expand to show TLE details & history
Last TLE update: 17 hours ago

TLE from 17 hours ago
0 COSMOS 2251 DEB
1 40808U 93036BWM 26207.61157781  .00006803  00000-0  11111-2 0  9998
2 40808  74.0397  68.0130 0008727  58.4027 332.7441 14.71048146669371
Epoch: 2026-07-26T14:40Z
TLE epoch observation values (Epoch: 2026-07-26T14:40:40.322Z)
Latitude
29.83603°
Longitude
-87.07264°
Altitude
655.711 km
Speed
7.535 km/s
True Right ascension
05h 09m 36s
True Declination
29° 41' 08"
Sunlit
Object was in daylight at epoch
Visualization orbit readout
Latitude
Unknown
Longitude
Unknown
Altitude
Unknown
Speed
Unknown
Apparent Right ascension
Unknown
Apparent Declination
Unknown
Sunlit
N/A
Visualization observer readout
Local Sidereal Time
21:03:59
Azimuth
Unknown
Elevation
Unknown
Doppler factor
Unknown
Orbital elements
Apogee altitude
661.447 km
Perigee altitude
649.171 km
Semi-major axis
7,033.446 km
Eccentricity
0.00087
Inclination
74.0397°
RAAN
68.013°
Arg. of periapsis
58.4027°
True anomaly
332.69826°
Mean anomaly
332.7441°
Eccentric anomaly
332.72118°
Mean motion
3.67952 °/min
Orbital period
97.84 mins
BSTAR
0.0011111
Loading maneuver chart data...
Computing Atmospheric mass density...

Documentation

Showing up to 5 results
|